This is the latest recevied weather packets stored in our database for station/object EA6MI-10. If no packets are shown the sender has not sent any weather packets the latest 10 day(s).
| Time | Temp. | Humidity | Pressure | Rain* | Wind** | Luminosity | Snow |
|---|---|---|---|---|---|---|---|
| 1777685053 | 20.56° C | 55% | 1016.1 hPa | - | - | - | - |
| 1777684153 | 20° C | 54% | 1016.1 hPa | - | - | - | - |
| 1777683253 | 20.56° C | 55% | 1016.2 hPa | - | - | - | - |
| 1777682353 | 20.56° C | 55% | 1016.4 hPa | - | - | - | - |
| 1777681453 | 20.56° C | 55% | 1017.1 hPa | - | - | - | - |
| 1777680553 | 20.56° C | 55% | 1017.1 hPa | - | - | - | - |
| 1777679652 | 20.56° C | 56% | 1017.1 hPa | - | - | - | - |
| 1777678752 | 20.56° C | 56% | 1017.7 hPa | - | - | - | - |
| 1777677852 | 20.56° C | 55% | 1017.3 hPa | - | - | - | - |
| 1777676952 | 20.56° C | 53% | 1017.4 hPa | - | - | - | - |
| 1777676052 | 20.56° C | 52% | 1017.4 hPa | - | - | - | - |
| 1777675152 | 20.56° C | 54% | 1017.3 hPa | - | - | - | - |
| 1777674253 | 21.11° C | 56% | 1017.4 hPa | - | - | - | - |
| 1777673352 | 21.11° C | 56% | 1017.4 hPa | - | - | - | - |
| 1777672451 | 20.56° C | 55% | 1017.3 hPa | - | - | - | - |
| 1777671551 | 21.11° C | 57% | 1017.1 hPa | - | - | - | - |
| 1777670651 | 20.56° C | 56% | 1017 hPa | - | - | - | - |
| 1777669751 | 21.11° C | 56% | 1017.1 hPa | - | - | - | - |
| 1777668851 | 21.11° C | 56% | 1017.2 hPa | - | - | - | - |
| 1777667951 | 21.11° C | 56% | 1016.8 hPa | - | - | - | - |
| 1777667051 | 21.67° C | 58% | 1016.7 hPa | - | - | - | - |
| 1777666150 | 21.67° C | 57% | 1016.4 hPa | - | - | - | - |
| 1777665250 | 21.67° C | 57% | 1016.5 hPa | - | - | - | - |
| 1777664350 | 21.67° C | 57% | 1016.3 hPa | - | - | - | - |
| 1777663450 | 21.67° C | 57% | 1016.2 hPa | - | - | - | - |
* Rain since midnight (hover to see other rain measurements)
** Current wind speed in m/s (hover to see current wind gust speed)